sat.trackr.live / text

‹ back to catalog

STARLINK-11674 [DTC]

NORAD 64327 · 2025-124L

PAYLOAD ACTIVE UNKNOWN

§ Identity

Operator
Country
US
Launch date
2025-06-10
Launch site
AFETR
Launch vehicle
Mass (kg)
RCS (m²)

Purposes: comms

External: N2YO · Heavens-Above · Gunter

§ Orbital elements

Epoch: 2026-05-24T18:32:19.822560Z

Period
91.67 min
Inclination
42.9980°
Eccentricity
0.0001121
Mean motion
15.70869884 rev/d
Perigee alt
355.7 km
Apogee alt
357.2 km
Semi-major
6,734.5 km
B*
6.3932e-4
RAAN
290.3037°
Arg perigee
250.5997°
Mean anomaly
109.4750°
Rev number
5,480

§ Raw data

STARLINK-11674 [DTC]1 64327U 25124L   26144.77245165  .00082506  00000+0  63932-3 0  99962 64327  42.9980 290.3037 0001121 250.5997 109.4750 15.70869884 54801

JSON: /api/v1/satellites/64327 · /tle

For live sub-satellite position, see the globe view (requires WebGL).

§ Visibility from observer

Set your observer location to see the next 7 days of passes ≥ 10°. The values pass through the URL so the page stays shareable.

No JS? Fill the form by hand. The geolocation button needs JavaScript.